Content
SEND FEEDBACK

Daily
Averages
Monthly
Summary
United States of America

ALPINE MEADOWS, CALIFORNIA


Home > North America > United States > California
Elevation: 1900 meters     Latitude: 39 12N     Longitude: 120 14W

WEATHER
 
SELECT A DAY
Number of Records: 282,323;   Date Range: 1/1/95 - 7/29/14
 
SHARE

PRINT THIS DATA

[ ← Previous Day ]
WEATHER ALMANAC - 15 SEPTEMBER, 2013
[ Next Day → ]
[ °F ]   °C
Weather ElementAverageHighLow
Temperature13 °C25 °C (1:55 pm)3 °C (6:35 am)
Dewpoint3.1 °C8 °C (9:45 am)-1 °C (11:50 am)
Humidity59.8 %100 % (3:35 am)19 % (11:50 am)
Barometer1017.9 hPa1019 hPa (11:15 pm)1017.3 hPa (2:50 pm)
Wind Speed9 km/h38.9 km/h (2:50 pm)
Wind Gust62.9 km/h (2:50 pm)
Weather ElementAverage
Visibility14.8 km
Wind DirectionESE (122.6 °)

Weather ElementTotal
Precipitation---
Heating Degree Days4.3 (Base 18.3)
Growing Degree Days4 (Base 10)
Averaged from 50 records on 15 September, 2013
WEATHER CONDITIONS BREAKOUT
WIND DIRECTION BREAKOUT
WEATHER BY HOUR - 15 SEPTEMBER, 2013
[ °F ]   °C
Local TimeTemperatureDewpointHumidityBarometerVisibilityWind DirectionWind SpeedGust SpeedPrecipitationEventsConditions
12:35 AM10 °C7 °C82 %1017.9 hPa16.1 kmCalmClear
12:55 AM8 °C7 °C93 %1017.6 hPa16.1 kmCalmClear
1:15 AM8 °C6 °C87 %1017.6 hPa16.1 kmCalmClear
1:35 AM7 °C5 °C87 %1017.6 hPa16.1 kmSSE (160°)5.6 km/hScattered Clouds
1:55 AM7 °C6 °C93 %1017.6 hPa16.1 kmWest (260°)5.6 km/hPartly Cloudy
2:15 AM8 °C7 °C93 %1017.9 hPa16.1 kmCalmClear
2:35 AM8 °C6 °C87 %1017.6 hPa16.1 kmCalmClear
2:55 AM7 °C5 °C87 %1017.6 hPa16.1 kmCalmPartly Cloudy
3:15 AM7 °C6 °C93 %1017.6 hPa16.1 kmCalmScattered Clouds
3:35 AM7 °C7 °C100 %1017.6 hPa16.1 kmCalmMostly Cloudy
3:55 AM7 °C6 °C93 %1017.6 hPa16.1 kmCalmMostly Cloudy
4:15 AM7 °C6 °C93 %1017.6 hPa16.1 kmCalmPartly Cloudy
4:35 AM7 °C6 °C93 %1017.6 hPa16.1 kmCalmClear
4:55 AM6 °C5 °C93 %1017.9 hPa6.4 kmCalmClear
5:15 AM5 °C5 °C100 %1017.6 hPa0.8 kmCalmFogFog
5:35 AM5 °C5 °C100 %1017.6 hPa4 kmCalmPartly Cloudy
5:55 AM6 °C6 °C100 %1017.6 hPa16.1 kmCalmClear
6:15 AM5 °C5 °C100 %1017.6 hPa9.7 kmCalmClear
6:35 AM3 °C3 °C100 %1017.6 hPa0.3 kmSSE (150°)5.6 km/hFogFog
6:55 AM4 °C4 °C100 %1017.6 hPa11.3 kmCalmFogShallow Fog
7:45 AM6 °C5 °C93 %1017.9 hPa16.1 kmCalmPartly Cloudy
8:50 AM11 °C7 °C76 %1017.9 hPa16.1 kmCalmPartly Cloudy
9:45 AM17 °C8 °C55 %1017.9 hPa16.1 kmCalmClear
10:45 AM23 °C1 °C23 %1017.9 hPa16.1 kmSSW (200°)22.2 km/h46.3 km/hPartly Cloudy
11:50 AM24 °C-1 °C19 %1017.9 hPa16.1 kmSouth (190°)31.5 km/h50.1 km/hPartly Cloudy
12:55 PM24 °C0 °C21 %1017.9 hPa16.1 kmSW (220°)29.6 km/h48.1 km/hPartly Cloudy
1:55 PM25 °C0 °C19 %1017.6 hPa16.1 kmSW (230°)37 km/h61.2 km/hPartly Cloudy
2:50 PM24 °C0 °C21 %1017.3 hPa16.1 kmSW (220°)38.9 km/h62.9 km/hPartly Cloudy
3:45 PM24 °C2 °C24 %1017.3 hPa16.1 kmSW (220°)22.2 km/h51.8 km/hPartly Cloudy
4:45 PM23 °C2 °C25 %1017.3 hPa16.1 kmWSW (240°)33.3 km/h46.3 km/hPartly Cloudy
5:50 PM21 °C2 °C28 %1017.6 hPa16.1 kmSW (230°)27.8 km/h37 km/hClear
5:55 PM21 °C2 °C28 %1017.6 hPa16.1 kmSW (230°)22.2 km/h37 km/hClear
6:15 PM20 °C2 °C30 %1017.6 hPa16.1 kmSW (220°)16.7 km/h33.3 km/hClear
6:35 PM20 °C2 °C30 %1017.6 hPa16.1 kmWSW (240°)22.2 km/h29.6 km/hClear
6:55 PM19 °C1 °C30 %1017.9 hPa16.1 kmSW (220°)13 km/h31.5 km/hClear
7:15 PM18 °C0 °C30 %1017.9 hPa16.1 kmSW (220°)16.7 km/h27.8 km/hClear
7:35 PM17 °C0 °C32 %1017.9 hPa16.1 kmSSW (200°)13 km/hClear
7:55 PM17 °C0 °C32 %1017.9 hPa16.1 kmSSW (210°)13 km/hClear
8:15 PM16 °C0 °C34 %1017.9 hPa16.1 kmSSW (200°)11.1 km/hClear
8:35 PM15 °C0 °C36 %1018.3 hPa16.1 kmWSW (240°)9.3 km/hClear
8:55 PM15 °C0 °C36 %1018.3 hPa16.1 kmSW (230°)7.4 km/hClear
9:15 PM15 °C0 °C36 %1018.3 hPa16.1 kmCalmClear
9:35 PM14 °C0 °C38 %1018.6 hPa16.1 kmWNW (300°)7.4 km/hClear
9:55 PM14 °C1 °C41 %1018.6 hPa16.1 kmWest (270°)9.3 km/hClear
10:15 PM14 °C1 °C41 %1018.6 hPa16.1 kmWest (270°)9.3 km/hClear
10:35 PM14 °C1 °C41 %1018.6 hPa16.1 kmCalmClear
10:55 PM14 °C1 °C41 %1018.6 hPa16.1 kmWest (280°)5.6 km/hClear
11:15 PM13 °C2 °C47 %1019 hPa16.1 kmWest (260°)5.6 km/hClear
11:35 PM11 °C2 °C54 %1019 hPa16.1 kmSW (220°)5.6 km/hClear
11:55 PM10 °C1 °C54 %1019 hPa16.1 kmCalmClear
Hourly data recorded from KTRK, located 0 kilometers away from Alpine Meadows, California







STORIES FROM OUR PARTNERS